Flag for United Arab Emirates Weather past 2 weeks in Umm al-Quwain, Umm al-Quwain, United Arab Emirates

Now
59 °F

Sunny.


Feels Like: 58 °F
Forecast: 71 / 78 °F
Wind: 6 mph from Southeast

Location: Sharjah International Airport

Current Time: Mar 3, 2015 at 7:25:28 AM

Latest Report: Mar 3, 2015 at 7:00 AM


Visibility: 10 mi

Pressure: 29.95 "Hg

Humidity: 39%

Dew point: 34 °F

Location of Umm al-QuwainLocation

Historic Weather in Umm al-Quwain — Graph

°F

Umm al-Quwain temperature yesterday

Maximum temperature yesterday: 81 °F (at 2:00 PM)
Minimum temperature yesterday: 54 °F (at 5:00 AM)
Average temperature yesterday: 69 °F

Past Weeks' High & Low Weather Summary

 TemperatureHumidityPressure
High95 °F (Feb 19, 2:00 PM)88% (Feb 16, 6:00 AM)30.09 "Hg (Feb 16, 6:00 AM)
Low52 °F (Mar 1, 4:00 AM)8% (Feb 19, 2:00 PM)29.56 "Hg (Feb 21, 7:00 AM)
Average71 °F42%29.92 "Hg
* Reported Feb 16 6:00 AM — Mar 3 6:00 AM, Umm al-Quwain, Weather by CustomWeather, © 2015

Note: Actual official high and low records may vary slightly from our data, if they occured in-between our weather recording intervals... More about our weather records

Advertising

Umm al-Quwain weather history for previous 24 hours

 ConditionsComfort  
Time TempWeatherWind HumidityBarometerVisibility
6:00 AM
Tue, Mar 3
61 °FClear.5 mph39%29.92 "Hg10 mi
5:00 AM61 °FClear.3 mph39%29.92 "Hg10 mi
4:00 AM61 °FRefreshingly cool.5 mph42%29.89 "HgN/A
3:00 AM57 °FClear.3 mph44%29.92 "Hg10 mi
2:00 AM59 °FClear.5 mph42%29.92 "Hg10 mi
1:00 AM64 °FClear.7 mph37%29.92 "Hg10 mi
12:00 AM63 °FClear.5 mph39%29.95 "Hg10 mi
11:00 PM
Mon, Mar 2
64 °FClear.7 mph40%29.95 "Hg10 mi
10:00 PM68 °FPassing clouds.3 mph38%29.95 "HgN/A
9:00 PM73 °FClear.2 mph31%29.95 "Hg10 mi
8:00 PM73 °FClear.5 mph31%29.92 "Hg10 mi
7:00 PM75 °FClear.10 mph27%29.92 "Hg10 mi
6:00 PM77 °FSunny.14 mph22%29.92 "Hg10 mi
5:00 PM79 °FSunny.13 mph23%29.89 "Hg10 mi
4:00 PM81 °FSunny.12 mph18%29.89 "Hg10 mi
3:00 PM81 °FSunny.10 mph18%29.89 "Hg10 mi
2:00 PM81 °FSunny.9 mph18%29.92 "Hg10 mi
1:00 PM79 °FSunny.12 mph18%29.92 "Hg10 mi
12:00 PM77 °FSunny.6 mph19%29.95 "Hg10 mi
11:00 AM75 °FSunny.5 mph19%29.98 "Hg10 mi
10:00 AM72 °FSunny.9 mph22%29.98 "Hg10 mi
9:00 AM66 °FSunny.5 mph37%29.98 "Hg10 mi
8:00 AM57 °FSunny.6 mph67%29.95 "Hg10 mi
7:00 AM54 °FSunny.6 mph72%29.92 "Hg10 mi
Weather by CustomWeather, © 2015

See weather overviewHow to use our weather pages